Wind_Speed
7 5 4 7 8 9 8 8 10 13 14 25 26 31 29 27 25 29 33 29 29 32 29 37 38 43 47 48 49 53 52 48 47 47 49 53 56 56 55 54 52 51 49 45
3 5 7 7 6 5 6 8 10 14 15 22 25 36 31 23 25 28 29 25 22 25 30 33 35 40 43 44 46 49 52 54 52 51 51 51 52 53 56 57 57 55 53 50
2 4 4 6 6 6 6 9 12 14 19 24 18 26 9 17 14 13 12 12 17 24 31 35 37 39 42 43 43 45 48 51 53 55 55 54 55 56 56 57 58 57 57 56
4 6 8 6 6 8 9 11 12 15 14 8 10 12 18 15 15 17 14 12 23 27 39 43 44 43 43 44 43 43 43 45 47 49 54 56 57 57 57 58 58 59 61 61
5 5 5 5 5 9 6 13 13 11 15 19 6 7 11 11 9 12 14 25 33 42 43 41 41 42 44 46 47 44 42 42 41 42 45 48 52 53 54 57 59 61 63 64
7 6 5 7 7 6 10 13 12 12 7 6 10 11 11 8 10 18 26 37 44 41 32 28 30 34 38 43 46 45 43 42 43 42 43 43 43 44 46 49 52 56 60 63
4 6 5 4 5 8 6 7 4 2 4 4 7 11 19 14 14 21 39 47 45 33 23 19 19 20 25 30 35 40 41 41 41 43 44 45 43 42 42 43 45 48 53 60
1 1 4 4 5 4 6 5 5 5 3 9 10 8 5 12 17 34 43 42 32 22 17 17 18 18 18 16 22 29 33 34 33 35 39 43 44 44 41 42 41 40 43 49
2 2 4 6 8 7 4 4 5 7 9 6 7 9 19 13 27 37 32 26 23 19 13 15 15 14 12 12 13 16 20 23 26 25 28 33 36 40 41 41 42 41 40 42
2 1 3 4 3 4 7 5 4 5 4 5 4 8 12 22 33 31 26 20 16 16 18 18 17 12 11 11 11 13 17 19 21 23 25 26 28 30 34 37 40 39 37 36
1 1 2 1 3 3 2 4 4 7 7 3 5 5 13 22 26 29 19 15 15 9 14 10 15 15 11 11 14 16 18 20 23 25 25 26 28 30 33 36 37 36 34 36
3 2 3 2 4 2 3 4 6 5 2 6 6 9 17 19 21 19 17 20 21 26 28 31 36 23 2 7 10 16 22 25 26 26 26 26 29 29 28 27 30 31 31 32
3 1 4 4 4 6 7 7 6 9 10 10 4 7 18 16 16 17 25 27 29 31 33 27 31 32 32 31 24 5 15 23 27 27 26 28 29 27 26 25 25 29 31 33
3 5 7 7 7 8 9 7 8 9 6 10 15 23 15 16 17 15 20 25 24 24 26 26 28 30 35 35 34 15 7 10 19 20 18 22 27 23 23 23 24 25 24 27
4 7 8 12 14 16 18 18 14 17 16 11 13 20 22 17 18 18 20 20 17 18 20 24 28 32 34 39 46 29 29 25 17 3 10 21 22 19 22 22 20 21 19 19
7 6 15 20 9 10 19 21 20 20 21 22 20 19 8 12 17 17 15 14 16 17 19 21 25 28 32 39 45 40 33 31 20 15 15 13 22 20 18 16 19 21 22 19
9 8 10 7 10 18 13 3 7 13 15 14 15 8 10 7 7 9 11 12 15 16 17 19 23 25 29 33 36 36 29 24 28 35 25 5 7 15 27 20 22 23 24 22
12 10 9 12 13 4 3 9 11 11 13 14 12 12 11 5 4 6 9 11 12 13 15 17 20 23 24 26 27 29 28 29 29 32 37 26 6 3 8 18 24 34 28 26
17 12 7 6 11 18 4 5 6 11 13 11 11 12 10 7 6 6 7 9 10 11 13 15 17 19 21 21 23 22 21 22 23 28 31 33 26 11 10 19 10 15 22 21
13 14 10 4 5 4 6 6 8 8 15 7 9 9 8 7 5 6 6 7 9 11 12 12 13 16 18 18 19 20 20 19 20 22 24 24 25 28 20 14 17 18 11 8
6 8 14 12 10 11 11 7 6 2 4 8 8 8 7 4 2 2 4 6 7 7 8 9 11 12 12 14 13 14 15 14 16 18 19 18 17 16 15 14 12 10 8 7
5 4 6 7 8 8 5 7 3 6 9 8 6 5 4 3 2 1 2 3 4 4 5 6 8 10 11 12 12 13 13 12 12 13 13 13 12 11 10 8 6 5 4 4
5 9 6 9 7 12 14 12 11 9 7 6 5 4 4 4 4 4 5 5 5 7 8 10 10 11 12 12 12 12 12 11 10 10 10 10 9 8 7 5 4 3 2 1
16 15 17 18 2 8 13 14 11 11 10 8 7 5 5 5 6 6 7 8 9 9 10 11 11 12 11 11 10 10 11 12 11 11 10 9 9 8 7 7 6 6 6 6
21 22 15 14 11 9 5 6 8 9 10 9 9 8 8 8 7 7 7 8 9 10 11 12 13 13 13 12 12 12 12 12 13 13 12 12 12 12 11 11 11 11 10 10
7 7 13 14 13 15 14 14 13 11 11 13 13 12 12 12 11 11 11 11 11 12 13 14 15 16 15 16 15 15 15 15 15 15 16 16 16 15 15 15 16 15 15 14
Wind_Direction
192 194 180 239 255 259 265 277 285 290 292 289 291 289 290 291 281 281 278 276 270 268 271 269 271 267 265 263 260 254 251 249 249 247 247 247 247 246 243 242 240 240 242 242
194 188 233 245 254 252 265 283 307 303 298 296 299 290 298 290 278 273 273 266 255 259 271 274 273 273 272 267 263 257 252 250 249 248 247 246 246 246 244 243 242 240 240 242
158 239 235 231 241 256 281 290 295 297 302 299 300 302 302 301 277 279 289 280 274 277 276 275 272 270 269 269 265 260 254 248 247 246 246 245 244 244 244 243 243 242 241 241
218 236 234 241 257 265 287 277 292 301 316 293 323 294 293 272 261 266 285 291 287 283 292 287 277 269 264 263 262 258 255 252 248 246 245 245 245 245 245 245 244 243 241 241
217 201 213 230 247 269 270 295 297 292 283 299 313 253 294 274 269 270 272 297 291 299 297 286 279 273 266 262 260 257 253 250 246 244 246 244 245 245 245 243 243 242 243 240
225 227 241 248 267 278 287 299 288 281 316 265 254 222 271 261 265 267 287 286 298 302 295 287 283 272 262 258 256 255 252 251 249 245 243 243 243 243 243 243 243 243 243 241
246 257 248 242 275 286 282 330 298 246 199 264 219 227 257 286 284 304 302 304 303 302 293 297 296 280 272 267 261 256 251 250 247 247 247 247 246 247 247 245 242 241 241 240
241 288 242 256 250 283 299 264 299 300 311 311 269 246 294 290 296 312 305 302 299 288 289 308 306 289 274 273 261 252 251 249 252 252 247 245 248 248 250 250 251 252 250 247
327 252 242 268 259 250 230 228 249 277 276 272 250 292 310 281 306 308 309 313 300 278 274 298 304 295 283 272 262 244 239 241 245 244 244 246 249 251 252 247 247 248 250 248
249 281 277 260 221 242 250 266 285 221 279 294 316 290 266 300 320 325 332 339 330 296 287 282 289 289 276 271 254 236 235 235 238 242 245 246 249 252 250 247 249 252 252 249
304 169 281 317 209 211 212 270 257 273 268 311 305 297 299 327 338 335 343 357 10 319 281 297 295 293 280 265 256 254 244 239 240 244 247 249 251 252 252 250 249 250 252 250
330 289 260 271 260 279 261 260 296 277 326 259 256 274 300 343 354 359 21 43 43 48 55 55 55 61 357 265 272 264 252 243 246 248 250 254 257 259 258 254 252 249 248 248
305 290 294 207 268 276 270 276 281 304 294 259 281 282 334 351 12 28 48 53 52 55 48 54 45 45 42 37 30 10 237 247 250 255 256 256 260 261 258 259 256 253 249 248
289 273 250 265 280 281 272 274 266 267 269 305 276 295 355 10 18 42 54 58 59 52 46 47 41 40 36 31 13 11 360 254 220 225 248 257 252 256 249 252 257 252 245 243
303 278 278 285 283 275 278 274 261 267 278 267 284 303 324 1 17 36 50 61 57 49 52 52 47 43 34 32 32 61 62 62 58 347 281 252 242 235 239 246 246 236 237 234
297 287 306 310 292 282 281 281 268 262 260 264 280 287 304 340 13 22 29 44 50 50 48 42 44 47 40 37 42 49 48 46 32 347 322 268 251 241 231 234 239 241 246 236
283 294 314 283 304 308 291 309 267 259 263 270 266 276 299 330 358 359 20 27 38 42 45 44 43 41 45 44 43 50 51 51 43 41 26 349 243 232 238 236 235 237 247 244
258 282 286 287 316 244 275 289 295 270 266 268 269 270 280 299 334 6 14 16 26 34 33 37 43 42 44 48 43 40 40 44 43 44 40 48 174 221 240 244 243 240 237 235
258 253 277 277 301 288 318 319 289 264 270 261 264 261 277 283 306 342 358 4 10 30 35 32 37 44 41 43 47 45 41 37 43 49 49 48 64 191 214 70 134 187 195 203
260 249 235 269 285 272 271 310 312 297 297 264 260 267 269 272 286 320 352 11 16 23 29 39 46 48 46 42 42 44 37 36 39 49 54 54 52 67 88 87 69 80 97 134
277 255 237 245 255 271 279 301 275 238 297 299 274 267 268 266 300 334 357 4 11 18 28 34 41 50 49 52 44 51 49 41 41 43 46 52 60 60 66 70 75 76 91 113
238 228 228 206 228 271 321 325 227 284 306 308 289 259 242 235 226 281 326 354 347 359 7 18 28 35 35 39 38 39 41 38 43 55 62 58 58 63 68 79 90 110 126 141
264 228 229 231 263 284 293 292 273 275 284 290 290 292 306 322 324 324 326 333 336 339 349 358 4 8 9 12 19 19 19 19 24 29 37 37 41 49 62 72 76 68 60 27
286 272 259 284 257 281 290 281 271 256 260 267 272 279 286 296 305 312 324 331 332 333 334 339 343 342 344 348 358 3 5 360 2 3 6 7 8 5 3 359 348 340 330 323
279 282 279 286 293 280 278 317 288 277 269 264 263 265 269 272 280 288 297 306 313 318 321 322 321 323 327 335 341 345 347 347 347 346 345 345 345 342 337 334 330 324 319 314
262 279 278 276 291 274 273 283 278 283 281 268 266 266 265 265 266 272 282 289 294 300 305 309 312 316 320 324 327 329 332 334 334 334 333 333 331 328 324 319 314 311 309 306
Height
3083 3086 3089 3089 3091 3092 3093 3092 3091 3091 3090 3084 3081 3075 3074 3075 3073 3068 3066 3067 3067 3066 3064 3061 3061 3060 3060 3063 3065 3070 3075 3079 3081 3084 3087 3090 3093 3099 3104 3109 3115 3120 3122 3126
3084 3086 3086 3088 3089 3090 3090 3089 3090 3090 3086 3081 3078 3067 3068 3067 3065 3060 3058 3059 3060 3059 3057 3055 3053 3051 3050 3051 3052 3055 3060 3065 3069 3072 3075 3079 3082 3086 3092 3097 3102 3108 3113 3117
3084 3085 3086 3087 3088 3088 3088 3088 3088 3089 3084 3080 3076 3064 3063 3061 3060 3056 3055 3056 3056 3054 3050 3048 3045 3043 3040 3040 3041 3042 3046 3050 3054 3058 3062 3066 3070 3073 3077 3083 3090 3097 3103 3107
3083 3084 3085 3086 3086 3087 3088 3085 3085 3084 3083 3083 3078 3065 3057 3059 3055 3054 3052 3052 3049 3046 3043 3036 3033 3031 3030 3029 3030 3031 3034 3037 3041 3045 3049 3052 3057 3061 3068 3073 3078 3084 3090 3095
3085 3083 3084 3085 3085 3085 3086 3083 3083 3083 3082 3079 3075 3073 3055 3054 3053 3054 3051 3045 3042 3038 3031 3024 3021 3019 3018 3018 3019 3021 3024 3026 3030 3033 3036 3041 3044 3049 3054 3059 3064 3069 3075 3082
3082 3082 3082 3083 3082 3083 3083 3082 3082 3079 3079 3078 3069 3070 3055 3054 3052 3048 3044 3038 3033 3026 3020 3015 3011 3008 3005 3005 3006 3009 3013 3017 3020 3023 3025 3030 3034 3037 3041 3046 3050 3055 3060 3066
3081 3081 3080 3082 3082 3082 3082 3082 3080 3077 3079 3069 3067 3067 3052 3050 3048 3044 3034 3027 3020 3016 3011 3007 3003 3000 2998 2996 2996 2999 3002 3007 3011 3013 3017 3021 3025 3029 3032 3035 3038 3042 3045 3050
3081 3081 3081 3080 3083 3083 3083 3084 3083 3076 3068 3065 3063 3057 3050 3048 3044 3038 3028 3019 3012 3009 3006 3003 3000 2995 2992 2989 2988 2990 2994 2999 3003 3005 3008 3012 3016 3019 3023 3026 3030 3034 3037 3040
3082 3082 3081 3081 3081 3083 3082 3082 3083 3080 3072 3069 3056 3053 3048 3044 3040 3031 3021 3012 3006 3002 3002 2999 2995 2991 2988 2985 2984 2985 2988 2991 2994 2997 3000 3004 3008 3011 3014 3018 3021 3024 3027 3030
3081 3082 3081 3080 3080 3081 3081 3082 3082 3078 3070 3061 3054 3052 3048 3044 3035 3025 3014 3007 3001 2996 2995 2994 2990 2987 2984 2983 2982 2982 2983 2986 2989 2992 2995 2998 3001 3004 3006 3008 3011 3015 3018 3020
3080 3081 3082 3081 3080 3079 3080 3079 3078 3077 3074 3068 3061 3052 3048 3043 3034 3023 3014 3005 3000 2996 2994 2990 2985 2981 2980 2980 2980 2980 2981 2983 2984 2985 2988 2991 2994 2996 2998 3000 3003 3006 3010 3012
3081 3080 3079 3080 3078 3077 3077 3077 3076 3075 3071 3069 3065 3054 3047 3041 3034 3024 3015 3008 3003 2999 2995 2992 2988 2984 2982 2981 2979 2977 2975 2975 2977 2980 2983 2986 2987 2989 2992 2994 2997 3000 3002 3004
3081 3081 3079 3078 3078 3076 3074 3073 3073 3072 3069 3065 3063 3052 3046 3040 3034 3026 3018 3012 3008 3004 3000 2996 2993 2988 2984 2980 2977 2972 2970 2969 2972 2976 2979 2980 2981 2983 2987 2989 2991 2993 2995 2997
3080 3079 3078 3076 3074 3074 3072 3071 3070 3069 3067 3062 3058 3050 3044 3039 3033 3028 3022 3017 3014 3010 3007 3002 2997 2992 2987 2981 2973 2963 2962 2960 2965 2971 2974 2975 2975 2979 2982 2985 2986 2987 2989 2991
3079 3077 3077 3073 3071 3070 3068 3067 3067 3064 3062 3061 3054 3050 3045 3039 3035 3030 3025 3022 3020 3016 3011 3006 3001 2995 2990 2984 2972 2965 2964 2963 2966 2970 2970 2969 2971 2973 2977 2980 2982 2984 2986 2988
3079 3076 3073 3068 3067 3065 3062 3060 3059 3058 3056 3054 3052 3048 3045 3041 3037 3034 3030 3026 3023 3019 3014 3009 3004 3000 2995 2988 2981 2975 2973 2974 2976 2974 2968 2965 2967 2971 2973 2977 2979 2981 2983 2984
3077 3075 3072 3067 3065 3063 3057 3053 3053 3052 3051 3051 3049 3048 3044 3042 3039 3036 3033 3029 3025 3022 3018 3013 3009 3005 2999 2995 2991 2987 2985 2983 2980 2975 2964 2959 2962 2967 2970 2974 2976 2978 2980 2980
3074 3074 3072 3066 3063 3059 3053 3052 3051 3050 3048 3047 3046 3045 3043 3041 3039 3037 3035 3031 3028 3024 3021 3016 3012 3008 3004 3000 2998 2994 2992 2988 2985 2981 2972 2965 2964 2968 2971 2972 2972 2972 2974 2976
3070 3072 3072 3068 3062 3055 3049 3049 3048 3047 3046 3044 3043 3042 3041 3040 3038 3037 3035 3033 3030 3027 3024 3020 3016 3012 3008 3006 3003 3001 2998 2996 2992 2987 2983 2978 2975 2975 2976 2973 2970 2970 2972 2974
3065 3067 3070 3068 3066 3055 3049 3048 3046 3046 3042 3041 3041 3041 3040 3039 3038 3036 3034 3034 3031 3029 3026 3024 3020 3017 3013 3010 3008 3004 3002 3000 2997 2993 2990 2988 2985 2984 2983 2981 2978 2978 2977 2981
3063 3062 3062 3065 3063 3052 3047 3046 3045 3047 3047 3041 3040 3039 3037 3037 3037 3036 3035 3034 3031 3030 3028 3026 3023 3020 3019 3015 3013 3010 3008 3007 3003 2999 2996 2994 2992 2991 2990 2989 2990 2991 2993 2994
3062 3061 3059 3059 3058 3050 3045 3044 3044 3044 3042 3040 3039 3038 3037 3036 3035 3034 3034 3033 3032 3030 3029 3027 3025 3022 3020 3018 3016 3013 3011 3010 3007 3005 3003 3001 2998 2997 2996 2996 2997 2997 2996 2996
3058 3057 3057 3054 3047 3044 3044 3043 3042 3041 3040 3039 3038 3038 3037 3037 3036 3036 3035 3034 3033 3031 3029 3028 3026 3024 3022 3020 3017 3015 3014 3012 3010 3008 3006 3005 3003 3001 3000 2999 2998 2997 2996 2996
3053 3052 3048 3047 3043 3042 3041 3039 3037 3037 3036 3036 3035 3035 3035 3035 3035 3035 3034 3033 3032 3031 3030 3028 3026 3025 3023 3021 3018 3016 3014 3013 3010 3009 3007 3005 3004 3002 3001 2999 2998 2996 2995 2994
3050 3045 3043 3040 3040 3039 3038 3036 3035 3034 3033 3032 3032 3032 3032 3032 3031 3031 3031 3030 3029 3029 3028 3026 3025 3023 3022 3019 3017 3015 3013 3012 3010 3008 3006 3004 3002 3001 2999 2997 2996 2995 2994 2993
3040 3040 3039 3037 3036 3035 3035 3033 3032 3031 3030 3029 3029 3029 3028 3028 3028 3027 3026 3026 3025 3024 3023 3022 3021 3020 3018 3017 3015 3014 3012 3010 3008 3006 3004 3002 3000 2999 2997 2995 2993 2992 2990 2988